Regional Weather Roundup
Issued by NWS

Home | Current Version | Previous Version | Text Only | Print | Product List | Glossary On
Versions: 1 2 3 4 5 6 7 8 9 10 11 12 13 14 15 16 17 18 19 20 21 22 23 24 25 26 27 28 29 30 31 32 33 34 35 36 37 38 39 40 41 42 43 44 45 46 47 48 49 50
675
ASUS44 KLIX 280911
RWRLA
LOUISIANA WEATHER ROUNDUP
NATIONAL WEATHER SERVICE NEW ORLEANS LA
400 AM CDT SAT MAY 28 2016

NOTE: "FAIR" INDICATES FEW OR NO CLOUDS BELOW 12,000 FEET WITH NO
      SIGNIFICANT WEATHER AND/OR OBSTRUCTIONS TO VISIBILITY.
      SKY/WX - SKY CONDITION AND SIGNIFICANT WEATHER.
      TMP - AIR TEMPERATURE.    DP   - DEWPOINT TEMPERATURE.
      RH  - RELATIVE HUMIDITY.  PRES - PRESSURE.
      HX  - HEAT INDEX.         WCI  - WIND CHILL INDEX.

*  THESE STATIONS ARE NOT NWS OR FAA STATIONS AND ARE NOT UNDER
   NWS QUALITY CONTROL.

LAZ040-048-061>063-065-066-069-281000-
SOUTHEAST LOUISIANA

CITY           SKY/WX    TMP DP  RH WIND       PRES   REMARKS
N.O. AUDUBON   NOT AVBL
N.O. INTL ARPT CLOUDY    75  71  87 S7        29.97R
N.O. LAKEFRONT PTCLDY    76  69  79 S9        29.98R
N.O. DOWNTOWN* FAIR      77  71  82 S7        29.98R
RESERVE*       FAIR      74  70  86 S7        29.96S
SLIDELL        CLEAR     73  71  93 SE3       29.96S
BATON ROUGE    CLOUDY    73  68  84 S9        29.95R
BOOTHVILLE     PTCLDY    74  70  87 E3        29.98R
BELLE CHASSE   CLOUDY    75  71  87 SE6       29.97R
BOGALUSA*      FAIR      73  69  87 S7        29.98R
GALLIANO*      CLOUDY    68  67  96 CALM      29.98S
NEW ROADS*     FAIR      70  66  87 SE12      29.92F
GONZALES*      FAIR      72  70  93 S6        29.95S
HAMMOND*       CLOUDY    72  68  88 S8        29.95S
HOUMA*         CLOUDY    72  69  92 CALM      29.98S
PORT FOURCHON* PTSUNNY   79  72  78 SW6       29.99R

$$

LAZ041-044-053-054-281000-
SOUTHWEST LOUISIANA

CITY           SKY/WX    TMP DP  RH WIND       PRES   REMARKS
LAKE CHARLES   MOCLDY    70  65  84 SE15      29.84F
LAFAYETTE      CLOUDY    70  65  84 S12       29.93F
PATTERSON      MOCLDY    71  68  90 SW5       29.97F
SALT POINT       N/A     76  65  68 W9G20     29.96F
NEW IBERIA     CLOUDY    70  65  84 SW9       29.95F
CHENAULT AIRPK NOT AVBL

$$

LAZ027-028-281000-
CENTRAL LOUISIANA

CITY           SKY/WX    TMP DP  RH WIND       PRES   REMARKS
FORT POLK      MOCLDY    66  64  93 VRB2      29.86S
ALEXANDRIA INT CLOUDY    66  65  96 E7        29.86F
ALEXANDRIA     CLOUDY    67  65  93 CALM      29.90R

$$

LAZ001-002-281000-
NORTHWEST LOUISIANA

CITY           SKY/WX    TMP DP  RH WIND       PRES   REMARKS
SHREVEPORT     CLOUDY    66  64  93 CALM      29.88S
BARKSDALE AFB  MOCLDY    64  64 100 E5        29.88F
DTN SHREVEPORT CLOUDY    65  63  93 CALM      29.88F

$$

LAZ014-016-281000-
NORTHEAST LOUISIANA

CITY           SKY/WX    TMP DP  RH WIND       PRES   REMARKS
MONROE         CLOUDY    66  65  96 CALM      29.93R
TALLULAH       CLOUDY    67  65  93 W3        29.92R

$$





USA.gov is the U.S. government's official web portal to all federal, state and local government web resources and services.